Hourly Weather Roundup
Issued by NWS Central Illinois

Home | Current Version | Previous Version | Text Only | Print | Product List | Glossary On
Versions: 1 2 3 4 5 6 7 8 9 10 11 12 13 14 15 16 17 18 19 20 21 22 23 24 25 26 27 28 29 30 31 32 33 34 35 36 37 38 39 40 41 42 43 44 45 46 47 48 49 50
792
NZUS43 KILX 181010
HWRILX

AREA WEATHER ROUNDUP
NATIONAL WEATHER SERVICE, LINCOLN IL
400 AM CST WED JAN 18 2017


CITY           SKY/WX    TMP DP  RH WIND       PRES   REMARKS
BLOOMINGTON    CLOUDY    34  33  96 W14       30.14S FOG     WCI  25
CHAMPAIGN      CLOUDY    36  34  92 W16       30.15R WCI  26
DANVILLE       CLOUDY    35  34  96 W9        30.11S FOG     WCI  27
DECATUR        CLOUDY    37  35  92 NW10      30.16S WCI  30
EFFINGHAM      CLOUDY    38  38  99 W9        30.19S WCI  32
FLORA          CLOUDY    40  37  89 W10       30.19S WCI  34
GALESBURG      CLOUDY    35  34  99 W10       30.15R WCI  27
JACKSONVILLE   CLOUDY    36  32  86 W12       30.18S WCI  28
LACON          CLOUDY    34  33  97 W5        30.14S FOG     WCI  30
LAWRENCEVILLE  CLOUDY    39  38  96 NW5       30.18R
LITCHFIELD     CLOUDY    36  34  93 W10       30.17F WCI  28
$$


CITY           SKY/WX    TMP DP  RH WIND       PRES   REMARKS
LINCOLN        CLOUDY    38  36  94 NW7       30.17R WCI  32
MACOMB         CLOUDY    35  33  92 W10G18    30.18S WCI  27
MATTOON        CLOUDY    37  35  92 W10       30.15S WCI  30
MT CARMEL AP   CLOUDY    39  36  87 NW6       30.18R
OLNEY-NOBLE AP CLOUDY    37  37 100 NW8       30.19R WCI  31
PARIS          CLOUDY    37  35  94 W15G21    30.16S WCI  28
PEORIA         CLOUDY    35  35 100 W6        30.15S FOG     WCI  30
PONTIAC        CLOUDY    35  35 100 W12G20    30.15R WCI  26
RANTOUL        CLOUDY    36  35  97 W16       30.14R FOG     WCI  26
SPRINGFIELD    CLOUDY    38  34  85 W13       30.17S WCI  30
TAYLORVILLE    CLOUDY    37  34  90 W10       30.18R WCI  29
$$

...REGIONAL REPORTS...


CITY           SKY/WX    TMP DP  RH WIND       PRES   REMARKS
CHICAGO O`HARE CLOUDY    34  33  96 W9        30.07R FOG     WCI  27
KANKAKEE       CLOUDY    33  32  96 W12       30.13R FOG     WCI  25
MOLINE         CLOUDY    36  33  89 W9        30.13S FOG     WCI  29
MOUNT STERLING CLOUDY    34  31  88 W6        30.16F WCI  29
MOUNT VERNON   CLOUDY    39  36  89 VRB5      30.19S
PITTSFIELD     CLOUDY    36  32  87 W5        30.18F WCI  32
QUINCY         CLOUDY    34  31  88 W7        30.17F WCI  28
ROCKFORD       DRZL/FOG  35  33  92 W9        30.11R VSB 1   WCI  28
$$


CITY           SKY/WX    TMP DP  RH WIND       PRES   REMARKS
BURLINGTON     CLOUDY    34  31  88 W7        30.15R WCI  28
CEDAR RAPIDS   CLOUDY    30  29  96 W15       30.12R WCI  19
DES MOINES     PTCLDY    30  28  92 SW5       30.09F WCI  25
KIRKSVILLE     MOCLDY    32  31  96 SW3       30.15F
OTTUMWA        CLEAR     31  27  85 SW3       30.12F
ST LOUIS       CLOUDY    40  33  76 NW10      30.18F WCI  33
$$


CITY           SKY/WX    TMP DP  RH WIND       PRES   REMARKS
TERRE HAUTE    CLOUDY    38  34  85 W15       30.16R WCI  29
EVANSVILLE     CLOUDY    41  36  82 NW6       30.19S
INDIANAPOLIS   CLOUDY    36  34  92 W13       30.12S WCI  27
LAFAYETTE      CLOUDY    35  33  92 W16       30.13R WCI  25
MADISON        CLOUDY    33  32  96 VRB7      30.05R FOG     WCI  27
MILWAUKEE      CLOUDY    36  33  89 SW8       30.03S FOG     WCI  30
$$






USA.gov is the U.S. government's official web portal to all federal, state and local government web resources and services.